{"data":{"norad_id":48458,"intl_designator":"2021-040AG","name":"STARLINK-2698","alt_names":[],"object_type":"PAYLOAD","status":"ACTIVE","operator":null,"country":"US","launch_date":"2021-05-09","launch_site_code":"AFETR","launch_vehicle":null,"mission":null,"orbit_class":"UNKNOWN","rcs_meters":null,"size_class":null,"mass_kg":null,"dimensions":null,"purposes":["comms"],"wikipedia_slug":null,"has_3d_model":false,"image_url":null,"decayed_at":null,"tle_current":{"epoch":"2026-05-24T19:33:44.099136Z","epoch_age_seconds":87533,"freshness":"FRESH","line1":"1 48458U 21040AG  26144.81509374  .00001229  00000+0  51356-4 0  9997","line2":"2 48458  53.1576 184.7029 0001332  81.4579 278.6573 15.31702332279050","mean_motion":15.31702332,"eccentricity":0.0001332,"inclination_deg":53.1576,"raan_deg":184.7029,"arg_perigee_deg":81.4579,"mean_anomaly_deg":278.6573,"bstar":5.1356e-5,"rev_number":27905,"period_min":94.013044827041,"perigee_km":469.820774174,"apogee_km":471.64531315363,"semimajor_km":6848.8700436638,"source":"CELESTRAK","updated_at":"2026-05-25T13:38:16.718630Z"}}}